COSMOS 1275 DEB, 13798

Orbit data source: Space-Track

COSMOS 1275 DEB, 13798 is space debris in LEO originally from a launch on Thu, 04 Jun 1981 UTC launched from the Plesetsk Missile And Space Complex (PKMTR). Debris objects in space refer to the collection of defunct objects orbiting the Earth. Examples of debris include non-operational satellites, rocket bodies, and fragments generated from explosions, collisions, or faulty payload assembly.

Loading next visibility...
Identifier
13798, 1981-053GS
Orbit
LEO
Country
Flag of CISCIS
Related business
Manufacturer
Unknown
Mission
Spacecraft
Bus & Motor
Unknown
Mass
Unknown
Launch date (UTC)
1981-06-04 (44 years ago)
Launch vehicle
Unknown
Launch site
Plesetsk Missile And Space Complex (PKMTR)
Object type
Payload
Rocket body
Debris
Shape & HBR
Unknown shape, 0.1 m
Radar Cross Section
Small (<0.1 m²)

Expand to show TLE details & history
Last TLE update: 1 day ago

TLE from 1 day ago
0 COSMOS 1275 DEB
1 13798U 81053GS  25301.18803559  .00002132  00000-0  19581-2 0  9999
2 13798  83.0056 276.7579 0084284  58.0092 302.9224 13.80819304210355
Epoch: 2025-10-28T04:30Z
TLE epoch observation values (Epoch: 2025-10-28T04:30:46.274Z)
Latitude
-0.00001°
Longitude
172.28597°
Altitude
930.635 km
Speed
7.403 km/s
True Right ascension
18h 27m 01s
True Declination
0° 00' 00"
Sunlit
Object was in daylight at epoch
Visualization orbit readout
Latitude
Unknown
Longitude
Unknown
Altitude
Unknown
Speed
Unknown
Apparent Right ascension
Unknown
Apparent Declination
Unknown
Sunlit
N/A
Visualization observer readout
Local Sidereal Time
09:38:35
Azimuth
Unknown
Elevation
Unknown
Doppler factor
Unknown
Orbital elements
Apogee altitude
1,019.953 km
Perigee altitude
896.287 km
Semi-major axis
7,336.257 km
Eccentricity
0.00843
Inclination
83.0056°
RAAN
276.7579°
Arg. of periapsis
58.0092°
True anomaly
302.10704°
Mean anomaly
302.9224°
Eccentric anomaly
302.51519°
Mean motion
3.45407 °/min
Orbital period
104.22 mins
BSTAR
0.0019581
Loading maneuver chart data...
Computing Atmospheric mass density...
Loading historical data...
Loading historical data...
Loading historical data...
Loading historical data...
Loading historical data...
Loading historical data...
Loading historical data...

Documentation

Showing up to 5 results
|